User: anonymous   Login
Location: Unspecified
(0.0000°N, 0.0000°E)
Time: 05:01:11
(UTC+00:00)
Language:

SIRIUS-1 - Orbit

View from above orbital plane
View from above orbital plane
View from above satellite
View from above satellite

Ground track
Ground track

The orbit data is extracted from the following two-line orbital elements,

1 26390U 00035A   18318.36716095 +.00000006 +00000-0 +00000-0 0  9992
2 26390 059.4342 215.7043 0000821 306.5748 231.3516 01.57877169028131
Epoch (UTC): 14 November 2018 08:48:42
Eccentricity: 0.0000821
inclination: 59.4342°
perigee height: 24773 km
apogee height: 24779 km
right ascension of ascending node: 215.7043°
argument of perigee: 306.5748°
revolutions per day: 1.57877169
mean anomaly at epoch: 231.3516°
orbit number at epoch: 2813

The dashed part of the orbit path shows where the satellite is in the earth's shadow,  

DLR